Home > Weather > Port St. Lucie > Past weeks

Flag for U.S.A. Weather for the Past 2 Weeks in Port St. Lucie, Florida, U.S.A.

Now
59 °F

Scattered clouds.


Feels Like: 57 °F
Forecast: 50 / 61 °F
Wind: 12 mph from Northwest

Location: Witham Field Airport

Current Time: Feb 9, 2016 at 11:55:10 AM

Latest Report: Feb 9, 2016 at 10:47 AM


Visibility: 7 mi

Pressure: 30.10 "Hg

Humidity: 34%

Dew point: 30 °F

Location of Port St. LucieLocation

Historic Weather in Port St. Lucie — Graph

°F

Port St. Lucie Temperature Yesterday

Maximum temperature yesterday: 68 °F (at 1:47 PM)
Minimum temperature yesterday: 43 °F (at 4:55 AM)
Average temperature yesterday: 55 °F

High & Low Weather Summary for the Past Weeks

 TemperatureHumidityPressure
High84 °F (Feb 4, 12:47 PM)100% (Jan 27, 5:15 AM)30.32 "Hg (Jan 27, 5:15 AM)
Low43 °F (Feb 8, 4:55 AM)18% (Feb 8, 11:47 AM)29.76 "Hg (Jan 28, 4:47 PM)
Average65 °F75%30.07 "Hg
* Reported Jan 25 9:47 AM — Feb 9 9:47 AM, Port St. Lucie, Weather by CustomWeather, © 2016

Note: Actual official high and low records may vary slightly from our data, if they occured in-between our weather recording intervals... More about our weather records

Advertising

Port St. Lucie Weather History for the Previous 24 Hours

 ConditionsComfort  
Time TempWeatherWind HumidityBarometerVisibility
9:47 AM
Tue, Feb 9
57 °FPartly sunny.14 mph36%30.10 "Hg7 mi
8:47 AM57 °FPartly sunny.14 mph39%30.08 "Hg7 mi
6:47 AM57 °FPassing clouds.12 mph48%30.02 "Hg7 mi
6:15 AM59 °FRefreshingly cool.15 mph48%29.99 "Hg10 mi
5:35 AM59 °FRefreshingly cool.16 mph48%29.97 "Hg10 mi
5:15 AM61 °FRefreshingly cool.13 mph48%29.96 "Hg10 mi
4:35 AM61 °FRefreshingly cool.18 mph55%29.96 "Hg10 mi
3:55 AM63 °FMild.16 mph64%29.94 "Hg10 mi
3:15 AM63 °FMild.15 mph73%29.91 "Hg10 mi
2:55 AM63 °FMild.12 mph73%29.91 "Hg10 mi
2:35 AM63 °FMild.13 mph73%29.92 "Hg10 mi
2:15 AM63 °FMild.13 mph73%29.92 "Hg10 mi
1:55 AM63 °FMild.9 mph68%29.92 "Hg10 mi
1:15 AM61 °FCool.12 mph72%29.92 "Hg10 mi
12:55 AM61 °FCool.12 mph72%29.92 "Hg10 mi
12:35 AM61 °FCool.12 mph72%29.93 "Hg10 mi
11:55 PM
Mon, Feb 8
61 °FCool.8 mph68%29.94 "Hg10 mi
11:35 PM61 °FCool.9 mph68%29.94 "Hg10 mi
10:55 PM61 °FCool.12 mph68%29.95 "Hg10 mi
10:35 PM61 °FCool.10 mph68%29.95 "Hg10 mi
10:15 PM61 °FCool.9 mph63%29.96 "Hg10 mi
9:55 PM61 °FCool.12 mph63%29.97 "Hg10 mi
9:35 PM61 °FRefreshingly cool.10 mph59%29.97 "Hg10 mi
9:15 PM61 °FRefreshingly cool.9 mph59%29.98 "Hg10 mi
8:35 PM63 °FMild.9 mph56%29.98 "Hg10 mi
7:55 PM63 °FMild.10 mph56%29.98 "Hg10 mi
7:35 PM63 °FMild.13 mph52%29.98 "Hg10 mi
7:15 PM64 °FMild.12 mph49%29.98 "Hg10 mi
6:55 PM64 °FMild.12 mph49%29.97 "Hg10 mi
6:15 PM64 °FMild.10 mph49%29.97 "Hg10 mi
4:47 PM66 °FSunny.13 mph40%29.99 "Hg7 mi
3:47 PM66 °FSunny.13 mph37%29.99 "Hg7 mi
2:47 PM66 °FSunny.14 mph32%30.01 "Hg7 mi
1:47 PM68 °FSunny.9 mph26%30.03 "Hg7 mi
12:47 PM66 °FSunny.12 mph22%30.07 "Hg7 mi
11:47 AM64 °FSunny.10 mph18%30.11 "Hg7 mi
Weather by CustomWeather, © 2016

See weather overviewHow to use our weather pages